User: anonymous   Login
Location: Unspecified
(0.0000°N, 0.0000°E)
Time: 10:25:21
(UTC+00:00)
Language:

Vela 6A - Orbit

View from above orbital plane
View from above orbital plane
View from above satellite
View from above satellite

Ground track
Ground track

The orbit data is extracted from the following two-line orbital elements,

1 04366U 70027A   15244.40043767  .00000535  00000-0  00000+0 0  9994
2 04366 049.3741 229.9685 6527255 081.8732 000.0163 00.21460259 29258
Epoch (UTC): 01 September 2015 09:36:37
Eccentricity: 0.6527255
inclination: 49.3741°
perigee height: 34546 km
apogee height: 188385 km
right ascension of ascending node: 229.9685°
argument of perigee: 81.8732°
revolutions per day: 0.21460259
mean anomaly at epoch: 0.0163°
orbit number at epoch: 2925

The dashed part of the orbit path shows where the satellite is in the earth's shadow,  

DLR